Wind_Speed
40 40 39 38 37 36 36 35 36 35 36 36 36 36 36 37 37 38 38 38 39 38 38 38 38 38 38 38 38 38 38 38 38 38 39 39 39 39 40 40 40 41 41
42 42 41 40 39 38 38 38 38 38 38 38 38 38 38 38 38 39 39 40 40 39 39 39 39 39 39 40 40 40 39 39 39 39 39 39 39 40 41 42 42 42 42
42 42 42 42 41 40 40 40 40 40 40 40 40 40 40 39 39 39 40 41 40 40 39 40 40 40 40 40 41 40 40 39 39 40 40 40 40 40 41 42 42 43 43
41 42 42 42 42 42 42 42 41 41 41 41 41 40 41 40 40 41 41 41 41 40 40 40 41 40 40 41 40 40 39 39 39 40 40 40 41 41 41 42 43 43 44
41 41 41 41 41 41 41 41 41 41 41 41 41 41 41 41 41 41 41 41 41 41 41 41 41 40 41 41 40 40 39 39 40 40 40 40 41 41 42 41 43 44 45
40 40 40 39 39 39 40 40 40 40 39 39 39 40 40 40 40 41 41 41 41 41 41 41 41 40 40 40 40 39 39 39 40 40 40 41 41 42 42 42 43 44 44
39 39 39 39 38 38 38 38 38 38 38 38 39 39 39 40 40 41 41 41 40 40 40 40 40 39 39 39 39 39 39 39 40 41 42 42 42 42 43 43 43 44 44
38 37 37 37 37 37 37 37 37 37 37 37 38 38 38 38 39 39 39 39 39 39 39 38 38 38 39 39 39 39 39 40 41 41 42 42 42 43 44 44 45 44 44
34 34 34 34 34 34 35 35 35 35 36 36 37 37 37 37 37 38 38 38 38 38 38 38 38 38 38 39 39 39 39 40 41 42 42 43 43 44 45 45 46 46 45
31 31 31 32 32 32 33 33 34 34 35 35 35 35 35 35 35 36 36 36 37 37 36 36 37 37 38 39 39 39 39 40 42 43 43 43 44 45 46 47 47 47 47
29 29 29 30 30 31 31 32 32 32 32 32 33 33 33 33 33 34 34 35 35 36 36 36 37 37 37 37 38 39 40 41 42 43 43 44 46 47 48 48 48 48 49
27 27 27 28 28 29 29 30 30 30 30 31 31 31 32 32 32 33 34 34 35 35 35 36 36 37 37 38 39 40 40 41 42 43 44 46 47 47 48 49 49 50 50
27 26 26 26 27 27 28 28 28 29 29 29 29 30 30 30 31 32 33 33 33 34 35 36 36 37 37 38 39 40 41 42 43 44 45 46 47 48 49 50 50 51 53
25 24 25 26 26 26 26 27 27 28 28 28 28 29 29 30 30 31 32 32 33 34 34 35 36 37 38 39 40 40 41 42 44 45 46 47 49 50 50 51 52 54 55
24 24 24 25 25 25 26 26 26 26 26 27 27 28 28 29 30 31 31 32 32 33 34 35 36 37 38 39 39 40 42 43 44 46 47 49 50 51 52 53 54 56 57
25 24 25 25 25 25 25 25 25 26 25 26 26 27 28 28 29 30 31 32 32 33 34 35 36 37 38 39 40 41 43 44 45 47 49 50 52 52 54 55 56 58 60
25 25 25 25 25 25 25 25 26 26 26 26 26 27 27 28 29 30 31 32 32 33 34 36 37 38 39 40 41 42 44 45 47 49 50 52 53 54 55 57 59 61 63
25 25 25 25 25 25 26 26 26 26 26 26 26 27 27 28 29 30 31 32 33 34 35 36 38 39 40 41 42 43 44 46 48 50 52 53 54 56 58 59 61 63 66
27 26 26 26 26 26 26 26 26 26 26 26 26 27 28 28 29 30 31 33 34 35 36 37 38 39 40 41 43 44 46 47 49 51 53 54 56 59 61 63 64 66 68
28 27 26 26 25 25 26 26 25 26 26 26 27 27 28 29 30 31 32 33 34 35 36 38 39 40 41 43 44 45 46 48 50 52 54 57 59 61 63 65 67 69 70
28 27 26 25 25 25 25 26 26 26 26 26 27 28 29 30 31 32 33 34 35 36 37 38 39 41 42 43 45 47 48 50 52 54 56 59 61 63 66 68 70 71 72
28 27 26 25 25 25 25 26 26 26 26 27 28 29 30 31 31 33 34 35 36 37 38 39 40 41 43 44 46 48 50 52 54 56 59 61 64 66 68 70 71 73 73
28 27 26 25 26 26 26 26 26 27 27 28 29 30 30 31 32 33 34 35 36 37 38 39 40 42 43 45 47 50 52 54 56 59 61 63 66 68 70 71 72 73 73
27 27 26 26 26 26 26 27 27 28 29 29 30 31 31 32 33 34 35 36 37 38 38 39 41 42 44 47 49 52 54 56 59 61 63 65 68 70 71 71 72 73 72
28 27 27 27 27 27 27 28 28 29 30 30 31 31 32 32 33 34 35 36 37 38 39 40 42 44 46 49 52 54 56 58 60 63 65 67 69 69 70 71 71 70 67
27 27 27 27 27 28 28 28 29 29 30 30 30 31 32 33 34 35 35 36 37 38 40 42 44 46 49 51 54 56 58 60 62 65 67 68 69 69 70 69 67 64 61
Wind_Direction
251 253 255 256 258 259 261 262 265 267 269 271 272 273 275 277 279 280 281 282 283 283 283 284 285 286 287 288 287 287 287 289 290 290 290 290 290 290 290 290 289 289 289
250 253 255 256 258 259 261 262 264 266 268 270 272 273 275 277 278 280 281 281 281 282 282 283 283 285 286 286 286 286 286 288 290 290 290 290 290 290 291 291 291 290 290
249 251 254 256 258 260 262 263 264 266 268 270 272 273 275 277 278 278 278 279 280 281 281 281 282 283 284 285 286 286 286 288 289 289 289 289 289 291 292 292 292 292 292
250 252 254 256 258 260 261 263 264 266 267 269 271 272 274 275 275 276 277 278 279 280 279 279 280 281 282 283 284 285 285 287 288 289 289 290 290 291 292 292 292 293 293
251 253 254 256 258 260 261 262 264 265 267 269 270 271 273 273 274 274 275 276 277 278 278 279 279 280 282 283 284 285 286 287 288 289 289 290 291 291 292 293 294 295 295
251 252 254 256 257 259 260 262 263 264 266 268 269 270 271 272 272 273 274 275 276 276 277 278 278 280 282 283 284 284 285 287 288 289 290 290 291 292 293 293 294 296 296
250 252 253 255 256 258 259 260 262 263 265 266 268 269 270 271 271 272 273 275 276 276 277 278 279 281 282 283 283 285 286 287 288 290 291 291 292 293 293 294 295 295 296
250 251 252 254 256 257 259 260 262 263 265 266 267 268 269 270 270 271 273 274 275 275 276 277 279 280 282 282 283 284 286 286 288 290 292 293 293 294 295 296 296 295 296
248 250 251 254 255 257 259 260 261 263 264 265 266 266 267 268 269 270 271 273 274 275 275 276 278 280 280 281 282 285 287 288 289 291 293 294 295 295 296 297 297 296 296
247 249 251 254 255 257 258 260 261 262 263 264 265 266 267 267 268 270 271 272 273 274 275 275 277 278 280 282 283 286 287 288 290 292 294 295 296 297 297 297 297 297 297
247 249 251 253 255 257 259 260 262 262 263 264 265 266 266 267 268 269 270 270 271 273 274 275 277 279 281 282 284 286 288 290 291 293 294 295 296 297 297 298 298 298 297
246 248 250 253 255 257 259 261 262 262 263 264 265 266 266 267 267 268 269 270 272 273 274 276 278 280 282 284 285 287 289 290 292 293 294 296 297 297 297 298 298 298 298
245 247 249 252 254 256 259 260 261 262 262 264 265 266 267 267 268 269 270 271 272 274 276 278 279 281 282 284 286 288 290 291 292 293 295 296 296 297 297 298 298 299 299
244 246 248 251 254 256 258 260 261 262 263 265 266 266 267 267 268 270 271 272 274 275 277 278 279 281 283 285 287 288 289 291 292 293 294 295 297 297 298 299 299 300 300
244 246 248 251 254 256 258 260 262 264 265 265 266 267 267 269 270 271 272 273 274 276 277 279 280 282 284 286 287 288 290 291 292 294 295 296 297 298 298 299 300 300 300
243 244 247 250 254 256 258 260 262 264 265 266 267 268 269 269 271 272 273 274 276 277 279 281 282 284 285 286 288 289 291 292 293 295 296 297 298 298 299 300 301 301 301
241 243 246 250 253 256 258 260 262 264 265 266 267 268 269 270 271 273 275 276 278 280 281 282 283 284 286 287 289 290 291 293 294 295 296 298 299 299 300 301 301 301 301
241 243 246 250 252 255 257 259 262 263 264 266 267 268 270 272 274 275 277 278 280 281 282 283 284 286 287 288 290 291 292 294 295 296 298 298 299 299 300 301 301 302 302
239 243 246 250 251 254 257 259 261 263 264 265 267 269 272 274 276 278 279 280 281 282 283 284 286 287 288 289 291 292 294 295 296 297 298 299 299 300 301 302 302 302 302
240 243 246 249 251 253 256 258 260 263 264 266 268 271 274 276 278 279 280 281 282 283 284 286 287 288 290 291 292 293 295 296 297 298 299 300 301 301 302 302 303 303 303
241 244 246 248 250 252 254 256 259 262 265 267 270 273 275 278 279 280 281 282 284 285 286 287 289 290 291 292 293 295 296 297 298 299 300 301 302 302 303 303 304 304 304
240 242 244 246 248 251 254 256 259 263 266 269 272 275 277 279 280 282 283 284 286 287 288 289 290 291 292 293 295 296 297 299 300 301 301 302 303 303 304 304 304 304 305
236 239 241 244 248 251 254 258 261 264 268 271 274 276 278 280 282 283 285 286 287 289 289 290 291 293 294 295 296 298 299 300 301 302 302 303 304 304 304 304 305 305 305
234 238 241 245 249 253 257 260 263 266 269 272 275 277 279 281 283 285 286 287 289 290 290 291 293 294 296 297 298 299 300 301 302 303 304 304 305 305 305 305 306 306 305
236 239 242 246 251 255 258 262 265 268 270 273 276 278 281 283 285 286 288 289 290 291 292 293 294 296 297 298 299 301 301 302 303 304 305 305 305 305 306 306 306 306 305
235 239 244 248 251 255 259 263 267 269 272 274 277 279 282 284 286 288 289 291 291 292 294 295 297 298 299 300 301 302 303 304 305 305 306 306 306 306 306 306 306 306 305
Height
5788 5789 5792 5794 5796 5798 5800 5801 5802 5803 5803 5804 5804 5804 5803 5803 5802 5801 5800 5798 5797 5795 5794 5792 5790 5789 5787 5784 5782 5780 5777 5775 5772 5769 5767 5764 5760 5758 5755 5752 5749 5746 5743
5778 5781 5783 5785 5788 5790 5791 5792 5793 5794 5794 5795 5795 5795 5795 5794 5794 5792 5791 5789 5788 5787 5785 5783 5782 5780 5778 5776 5774 5771 5769 5766 5764 5761 5758 5755 5753 5749 5746 5743 5740 5736 5733
5770 5772 5774 5776 5779 5781 5782 5783 5784 5785 5785 5785 5785 5785 5785 5785 5785 5783 5781 5780 5779 5778 5776 5775 5773 5771 5769 5767 5765 5763 5761 5758 5755 5753 5750 5747 5744 5741 5737 5734 5730 5727 5723
5760 5763 5765 5767 5770 5771 5772 5774 5775 5775 5776 5776 5776 5776 5776 5776 5775 5774 5772 5771 5770 5769 5767 5766 5764 5762 5760 5758 5756 5754 5752 5749 5747 5744 5741 5738 5735 5732 5729 5725 5721 5717 5714
5750 5753 5755 5758 5759 5761 5762 5763 5764 5765 5766 5766 5767 5766 5766 5766 5765 5764 5763 5762 5761 5759 5758 5757 5755 5753 5752 5750 5748 5745 5743 5741 5738 5735 5732 5729 5726 5723 5720 5716 5712 5708 5704
5741 5743 5745 5747 5749 5751 5752 5753 5754 5755 5756 5756 5756 5756 5756 5755 5755 5754 5753 5752 5751 5750 5749 5747 5746 5744 5742 5741 5739 5737 5734 5732 5729 5726 5723 5720 5717 5714 5710 5707 5703 5699 5694
5730 5733 5735 5738 5739 5741 5743 5744 5745 5745 5746 5746 5747 5746 5746 5746 5745 5744 5743 5743 5742 5741 5739 5738 5737 5735 5733 5732 5730 5728 5725 5723 5720 5717 5714 5711 5708 5704 5701 5697 5694 5690 5685
5721 5723 5726 5727 5729 5731 5732 5734 5735 5736 5736 5737 5737 5737 5736 5736 5735 5735 5734 5733 5732 5731 5730 5729 5728 5726 5725 5723 5721 5719 5716 5713 5711 5708 5704 5701 5698 5694 5690 5687 5683 5680 5676
5711 5714 5716 5718 5720 5721 5723 5724 5725 5726 5726 5727 5727 5727 5727 5726 5726 5725 5725 5724 5723 5722 5721 5720 5719 5717 5716 5714 5712 5710 5707 5704 5701 5698 5695 5691 5688 5684 5680 5676 5672 5669 5665
5703 5705 5707 5708 5710 5712 5713 5714 5715 5716 5717 5717 5718 5718 5718 5717 5717 5716 5716 5715 5714 5713 5712 5711 5710 5709 5707 5705 5703 5700 5698 5695 5692 5689 5685 5681 5677 5673 5669 5665 5661 5657 5653
5694 5696 5698 5700 5701 5703 5704 5705 5706 5707 5708 5708 5708 5708 5708 5708 5708 5708 5707 5706 5706 5705 5704 5703 5701 5700 5698 5696 5694 5691 5689 5686 5682 5679 5675 5671 5667 5663 5659 5654 5650 5645 5641
5686 5688 5690 5692 5693 5694 5695 5696 5697 5698 5699 5699 5699 5700 5700 5700 5699 5699 5699 5698 5697 5696 5695 5694 5693 5691 5689 5687 5685 5682 5679 5676 5672 5669 5665 5661 5657 5652 5648 5643 5639 5634 5629
5678 5680 5682 5684 5685 5686 5687 5688 5689 5689 5690 5690 5691 5691 5691 5691 5691 5691 5690 5689 5689 5688 5686 5685 5684 5682 5680 5678 5675 5672 5669 5666 5662 5658 5654 5650 5646 5641 5636 5632 5627 5622 5616
5671 5673 5674 5676 5677 5678 5679 5680 5681 5681 5682 5682 5683 5683 5683 5683 5683 5682 5682 5681 5680 5679 5678 5676 5674 5673 5670 5668 5665 5663 5659 5656 5652 5648 5643 5639 5634 5630 5625 5620 5614 5609 5603
5663 5665 5667 5668 5669 5670 5671 5672 5673 5673 5674 5674 5675 5675 5675 5675 5674 5674 5673 5672 5671 5670 5668 5667 5665 5663 5661 5658 5655 5653 5649 5645 5641 5637 5632 5628 5623 5617 5612 5607 5601 5595 5589
5655 5657 5659 5660 5662 5663 5664 5664 5665 5666 5666 5667 5667 5667 5667 5667 5666 5665 5665 5664 5662 5661 5660 5658 5656 5654 5651 5648 5645 5642 5638 5634 5630 5626 5621 5616 5610 5605 5599 5593 5587 5581 5574
5647 5649 5651 5653 5654 5655 5656 5657 5658 5658 5659 5659 5659 5659 5659 5658 5658 5657 5656 5655 5654 5652 5650 5648 5646 5644 5641 5638 5635 5631 5627 5623 5619 5614 5609 5604 5598 5592 5586 5580 5574 5566 5557
5638 5641 5643 5645 5646 5647 5648 5649 5650 5651 5651 5651 5651 5651 5651 5650 5649 5648 5647 5646 5645 5643 5641 5639 5636 5633 5630 5627 5624 5620 5616 5612 5607 5602 5597 5591 5585 5578 5572 5566 5559 5551 5542
5630 5632 5635 5636 5638 5639 5640 5641 5642 5643 5643 5643 5643 5643 5642 5642 5641 5640 5639 5637 5635 5633 5631 5629 5626 5623 5620 5616 5613 5609 5605 5600 5595 5590 5584 5578 5571 5564 5557 5551 5544 5537 5527
5621 5624 5626 5628 5630 5631 5632 5633 5634 5635 5635 5635 5635 5635 5634 5633 5632 5631 5629 5628 5626 5624 5621 5619 5616 5613 5609 5605 5601 5597 5593 5589 5583 5577 5571 5564 5557 5549 5541 5534 5526 5518 5510
5613 5615 5618 5620 5622 5623 5625 5626 5626 5627 5627 5627 5627 5627 5626 5625 5624 5622 5620 5619 5616 5614 5611 5609 5605 5602 5598 5594 5590 5585 5581 5576 5570 5564 5557 5550 5542 5534 5525 5516 5508 5499 5491
5604 5607 5610 5612 5614 5615 5617 5618 5619 5619 5619 5619 5619 5618 5617 5616 5614 5613 5611 5609 5606 5604 5601 5598 5595 5591 5587 5583 5578 5573 5568 5563 5557 5550 5543 5535 5526 5518 5509 5499 5490 5480 5471
5596 5599 5602 5604 5606 5608 5609 5610 5611 5611 5611 5611 5610 5609 5608 5607 5605 5603 5601 5599 5596 5594 5591 5587 5584 5580 5575 5571 5566 5561 5555 5549 5542 5535 5527 5519 5511 5501 5492 5482 5472 5462 5453
5588 5591 5594 5596 5598 5600 5601 5602 5602 5603 5602 5602 5601 5600 5599 5597 5596 5594 5591 5589 5586 5583 5580 5577 5573 5569 5564 5559 5554 5548 5541 5535 5527 5520 5512 5503 5494 5484 5474 5464 5454 5444 5434
5581 5584 5586 5588 5590 5592 5593 5594 5594 5594 5594 5593 5592 5591 5590 5588 5586 5584 5582 5579 5576 5573 5569 5566 5562 5557 5552 5547 5541 5534 5528 5520 5512 5504 5496 5487 5477 5467 5458 5447 5437 5427 5417
5573 5576 5578 5580 5582 5583 5584 5585 5585 5585 5585 5584 5583 5582 5580 5579 5576 5574 5571 5568 5565 5562 5558 5554 5550 5545 5540 5533 5527 5520 5512 5504 5496 5488 5479 5470 5460 5450 5441 5431 5421 5411 5402